Weather in Mari-Lugovaya

Russia / Mari El Republic     55°56′20″N   48°11′49″E
temp.,
°C
wind,
m/s
gust,
m/s
humid.,
%
clouds,
%
prec.,
mm/h
press.,
hPa
HPBL,
m
22 january, sat
sat2200:00−11se61690100 0.0 1016459
03:00−11se61592100 0.1 1016497
06:00−11se61293100 0.3 1017460
09:00−10se51194100 0.6 1018448
12:00−8se51194100 0.7 1018544
15:00−7se51195100 1.3 1019592
18:00−6se51194100 0.2 1020452
21:00−5se51296100 1.1 1020614
23 january, sun
sun2300:00−5sse61295100 2.6 1021654
03:00−5sse5119297 3.1 1023464
06:00−7sse4995100 0.1 1025276
09:00−7sse3796100 0.2 1027247
12:00−5sse3694100 0.3 1029365
15:00−5se2596100 0.4 1031254
18:00−6se2697100 0.3 1033212
21:00−7se2397100 0.4 103462
24 january, mon
mon2400:00−7se2397100 0.3 1036108
03:00−7se2397100 0.5 103682
06:00−8se1198100 0.2 103723
09:00−7e1196100 0.4 103839
12:00−5se1194100 0.3 1038207
15:00−6sse129675 0.3 103860
18:00−13sse1110088 0.0 103810
21:00−17se119928 0.0 10389
25 january, tue
tue2500:00−19se119916 0.0 10379
03:00−20se221005 0.0 103611
06:00−21sse2210034 0.0 103517
09:00−18sse249827 0.0 103458
12:00−11sse35866 0.0 1032179
15:00−12sse37895 0.0 1031162
18:00−17sse369578 0.0 103074
21:00−18sse369690 0.0 102973
26 january, wed
wed2600:00−18sse379888 0.0 1028105
03:00−17sse379865 0.0 1028110
06:00−17sse399974 0.0 1027137
09:00−16sse399987 0.0 1027164
12:00−12sse479492 0.0 1026235
15:00−11sse4994100 0.0 1026300
18:00−12sse4895100 0.1 1025229
21:00−12se3796100 0.2 1025159